This is the latest recevied weather packets stored in our database for station/object W3JBS-2. If no packets are shown the sender has not sent any weather packets the latest 10 day(s).
| Time | Temp. | Humidity | Pressure | Rain* | Wind** | Luminosity | Snow |
|---|---|---|---|---|---|---|---|
| 1777574216 | 16.11° C | 60% | 1006.8 hPa | 0 mm | - | 1647 W/m² | - |
| 1777573316 | 16.11° C | 60% | 1007.1 hPa | 0 mm | - | 1640 W/m² | - |
| 1777572416 | 16.67° C | 57% | 1007 hPa | 0 mm | - | 1622 W/m² | - |
| 1777571516 | 17.22° C | 60% | 1007.1 hPa | 0 mm | - | 1610 W/m² | - |
| 1777570617 | 16.67° C | 62% | 1007.3 hPa | 0 mm | - | 1612 W/m² | - |
| 1777569716 | 16.11° C | 63% | 1007.4 hPa | 0 mm | - | 1615 W/m² | - |
| 1777568816 | 15.56° C | 64% | 1007.3 hPa | 0 mm | - | 1612 W/m² | - |
| 1777567916 | 15.56° C | 64% | 1007.2 hPa | 0 mm | - | 1601 W/m² | - |
| 1777567016 | 15° C | 65% | 1007.3 hPa | 0 mm | - | 1591 W/m² | - |
| 1777566116 | 15° C | 69% | 1007.2 hPa | 0 mm | - | 1589 W/m² | - |
| 1777565216 | 13.89° C | 73% | 1007.5 hPa | 0 mm | - | 1600 W/m² | - |
| 1777564316 | 14.44° C | 71% | 1007.7 hPa | 0 mm | - | 1594 W/m² | - |
| 1777563416 | 13.89° C | 72% | 1007.8 hPa | 0 mm | - | 1624 W/m² | - |
| 1777562516 | 13.89° C | 72% | 1008.1 hPa | 0 mm | - | 1628 W/m² | - |
| 1777561616 | 13.33° C | 72% | 1008.2 hPa | 0 mm | - | 1619 W/m² | - |
| 1777560716 | 13.89° C | 73% | 1008.3 hPa | 0 mm | - | 1598 W/m² | - |
| 1777559816 | 13.89° C | 74% | 1008 hPa | 0 mm | - | 1531 W/m² | - |
| 1777558916 | 14.44° C | 77% | 1007.8 hPa | 0 mm | - | 1556 W/m² | - |
| 1777558016 | 13.33° C | 78% | 1007.6 hPa | 0 mm | - | 1626 W/m² | - |
| 1777557116 | 13.33° C | 80% | 1007.4 hPa | 0 mm | - | 1637 W/m² | - |
| 1777556216 | 12.78° C | 82% | 1007.2 hPa | 0 mm | - | 1666 W/m² | - |
| 1777555317 | 12.22° C | 85% | 1007 hPa | 0 mm | - | 1682 W/m² | - |
| 1777554417 | 11.67° C | 86% | 1007.1 hPa | 0 mm | - | 1695 W/m² | - |
| 1777553516 | 11.67° C | 88% | 1007.3 hPa | 0 mm | - | 1712 W/m² | - |
| 1777552616 | 10.56° C | 89% | 1007.3 hPa | 0 mm | - | 1719 W/m² | - |
* Rain latest hour (hover to see other rain measurements)
** Current wind speed in m/s (hover to see current wind gust speed)